Time,TemperatureF,DewpointF,PressureIn,WindDirection,WindDirectionDegrees,WindSpeedMPH,WindSpeedGustMPH,Humidity,HourlyPrecipIn,Conditions,Clouds,dailyrainin,SolarRadiationWatts/m^2,SoftwareType,DateUTC
2013-11-18 00:07:00,42.4,42.0,29.87,NE,55,0.0,-999.0,98,-99.99,,,0.00,0,weatherlink.com 1.10,2013-11-18 00:07:00,
2013-11-18 00:22:00,42.0,41.0,29.86,SE,138,0.0,-999.0,97,-99.99,,,0.00,0,weatherlink.com 1.10,2013-11-18 00:22:00,
2013-11-18 00:38:00,40.6,40.0,29.86,SE,138,0.0,-999.0,97,-99.99,,,0.00,0,weatherlink.com 1.10,2013-11-18 00:38:00,
2013-11-18 00:53:00,39.6,39.0,29.85,SE,138,4.0,-999.0,97,-99.99,,,0.00,0,weatherlink.com 1.10,2013-11-18 00:53:00,
2013-11-18 01:08:00,39.2,39.0,29.84,SE,138,0.0,-999.0,97,-99.99,,,0.00,0,weatherlink.com 1.10,2013-11-18 01:08:00,
2013-11-18 01:23:00,39.0,38.0,29.84,WSW,257,0.0,-999.0,97,-99.99,,,0.00,0,weatherlink.com 1.10,2013-11-18 01:23:00,
2013-11-18 01:38:00,38.7,38.0,29.84,WSW,257,0.0,-999.0,97,-99.99,,,0.00,0,weatherlink.com 1.10,2013-11-18 01:38:00,
2013-11-18 01:53:00,38.1,37.0,29.83,WSW,257,0.0,-999.0,97,-99.99,,,0.00,0,weatherlink.com 1.10,2013-11-18 01:53:00,
2013-11-18 02:08:00,37.5,37.0,29.83,WSW,257,0.0,-999.0,97,-99.99,,,0.00,0,weatherlink.com 1.10,2013-11-18 02:08:00,
2013-11-18 02:23:00,37.3,37.0,29.83,WSW,257,0.0,-999.0,97,-99.99,,,0.00,0,weatherlink.com 1.10,2013-11-18 02:23:00,
2013-11-18 02:38:00,38.6,38.0,29.82,SE,140,0.0,-999.0,98,-99.99,,,0.00,0,weatherlink.com 1.10,2013-11-18 02:38:00,
2013-11-18 02:53:00,39.1,39.0,29.81,SE,140,0.0,-999.0,98,-99.99,,,0.00,0,weatherlink.com 1.10,2013-11-18 02:53:00,
2013-11-18 03:08:00,38.8,38.0,29.80,SE,143,0.0,-999.0,97,-99.99,,,0.00,0,weatherlink.com 1.10,2013-11-18 03:08:00,
2013-11-18 03:23:00,38.5,38.0,29.80,SE,143,0.0,-999.0,97,-99.99,,,0.00,0,weatherlink.com 1.10,2013-11-18 03:23:00,
2013-11-18 03:38:00,38.2,38.0,29.80,SE,143,0.0,-999.0,98,-99.99,,,0.00,0,weatherlink.com 1.10,2013-11-18 03:38:00,
2013-11-18 03:53:00,38.4,38.0,29.79,SE,143,0.0,-999.0,98,-99.99,,,0.00,0,weatherlink.com 1.10,2013-11-18 03:53:00,
2013-11-18 04:08:00,37.6,37.0,29.79,SE,143,0.0,-999.0,97,-99.99,,,0.00,0,weatherlink.com 1.10,2013-11-18 04:08:00,
2013-11-18 04:23:00,37.2,37.0,29.78,SE,143,0.0,-999.0,97,-99.99,,,0.00,0,weatherlink.com 1.10,2013-11-18 04:23:00,
2013-11-18 04:38:00,37.6,37.0,29.78,SE,143,1.0,-999.0,98,-99.99,,,0.00,0,weatherlink.com 1.10,2013-11-18 04:38:00,
2013-11-18 04:53:00,38.8,38.0,29.78,SSW,201,1.0,-999.0,98,-99.99,,,0.00,0,weatherlink.com 1.10,2013-11-18 04:53:00,
2013-11-18 05:08:00,39.6,39.0,29.77,SSW,201,3.0,-999.0,98,-99.99,,,0.00,0,weatherlink.com 1.10,2013-11-18 05:08:00,
2013-11-18 05:23:00,40.0,40.0,29.77,SSW,201,2.0,-999.0,98,-99.99,,,0.00,0,weatherlink.com 1.10,2013-11-18 05:23:00,
2013-11-18 05:38:00,39.8,39.0,29.77,SSW,201,0.0,-999.0,98,-99.99,,,0.00,0,weatherlink.com 1.10,2013-11-18 05:38:00,
2013-11-18 05:53:00,39.9,39.0,29.77,SSW,201,0.0,-999.0,98,-99.99,,,0.00,0,weatherlink.com 1.10,2013-11-18 05:53:00,
2013-11-18 06:08:00,40.6,40.0,29.77,WSW,241,1.0,-999.0,98,-99.99,,,0.01,0,weatherlink.com 1.10,2013-11-18 06:08:00,
2013-11-18 06:23:00,41.9,41.0,29.76,WSW,241,0.0,-999.0,98,-99.99,,,0.01,0,weatherlink.com 1.10,2013-11-18 06:23:00,
2013-11-18 06:38:00,41.9,41.0,29.76,WSW,241,3.0,-999.0,98,-99.99,,,0.01,0,weatherlink.com 1.10,2013-11-18 06:38:00,
2013-11-18 06:53:00,41.5,41.0,29.75,WSW,241,0.0,-999.0,98,-99.99,,,0.01,0,weatherlink.com 1.10,2013-11-18 06:53:00,
2013-11-18 07:08:00,41.7,41.0,29.76,WSW,242,3.0,-999.0,98,-99.99,,,0.01,0,weatherlink.com 1.10,2013-11-18 07:08:00,
2013-11-18 07:23:00,42.3,42.0,29.76,WSW,246,0.0,-999.0,98,-99.99,,,0.01,0,weatherlink.com 1.10,2013-11-18 07:23:00,
2013-11-18 07:39:00,42.0,42.0,29.76,WSW,246,1.0,-999.0,98,-99.99,,,0.01,0,weatherlink.com 1.10,2013-11-18 07:39:00,
2013-11-18 07:53:00,43.0,43.0,29.76,WSW,250,7.0,-999.0,98,-99.99,,,0.01,0,weatherlink.com 1.10,2013-11-18 07:53:00,
2013-11-18 08:08:00,43.2,43.0,29.76,West,279,3.0,-999.0,98,-99.99,,,0.01,0,weatherlink.com 1.10,2013-11-18 08:08:00,
2013-11-18 08:23:00,43.1,43.0,29.76,WNW,288,9.0,-999.0,98,-99.99,,,0.02,0,weatherlink.com 1.10,2013-11-18 08:23:00,
2013-11-18 08:38:00,43.0,43.0,29.76,West,270,4.0,-999.0,98,-99.99,,,0.02,5,weatherlink.com 1.10,2013-11-18 08:38:00,
2013-11-18 08:54:00,42.8,42.0,29.76,WNW,286,4.0,-999.0,98,-99.99,,,0.02,32,weatherlink.com 1.10,2013-11-18 08:54:00,
2013-11-18 09:09:00,43.1,43.0,29.76,WNW,288,5.0,-999.0,98,-99.99,,,0.02,23,weatherlink.com 1.10,2013-11-18 09:09:00,
2013-11-18 09:24:00,43.4,43.0,29.76,West,277,7.0,-999.0,98,-99.99,,,0.02,35,weatherlink.com 1.10,2013-11-18 09:24:00,
2013-11-18 09:39:00,43.2,43.0,29.76,WNW,296,8.0,-999.0,98,-99.99,,,0.02,40,weatherlink.com 1.10,2013-11-18 09:39:00,
2013-11-18 09:54:00,43.4,43.0,29.76,WSW,257,7.0,-999.0,98,-99.99,,,0.02,118,weatherlink.com 1.10,2013-11-18 09:54:00,
2013-11-18 10:09:00,42.9,42.0,29.77,WNW,295,8.0,-999.0,97,-99.99,,,0.02,39,weatherlink.com 1.10,2013-11-18 10:09:00,
2013-11-18 10:24:00,42.9,42.0,29.77,West,279,11.0,-999.0,97,-99.99,,,0.02,151,weatherlink.com 1.10,2013-11-18 10:24:00,
2013-11-18 10:39:00,42.9,42.0,29.76,WNW,287,5.0,-999.0,97,-99.99,,,0.02,98,weatherlink.com 1.10,2013-11-18 10:39:00,
2013-11-18 10:54:00,42.7,42.0,29.77,WSW,243,5.0,-999.0,96,-99.99,,,0.02,102,weatherlink.com 1.10,2013-11-18 10:54:00,
2013-11-18 11:09:00,43.1,42.0,29.77,West,263,4.0,-999.0,95,-99.99,,,0.02,84,weatherlink.com 1.10,2013-11-18 11:09:00,
2013-11-18 11:24:00,44.1,43.0,29.77,West,273,7.0,-999.0,95,-99.99,,,0.02,79,weatherlink.com 1.10,2013-11-18 11:24:00,
2013-11-18 11:39:00,42.9,41.0,29.77,NW,304,8.0,-999.0,92,-99.99,,,0.03,84,weatherlink.com 1.10,2013-11-18 11:39:00,
2013-11-18 11:54:00,43.1,41.0,29.77,WNW,286,4.0,-999.0,93,-99.99,,,0.03,95,weatherlink.com 1.10,2013-11-18 11:54:00,
2013-11-18 12:09:00,42.9,41.0,29.76,West,277,5.0,-999.0,92,-99.99,,,0.03,237,weatherlink.com 1.10,2013-11-18 12:09:00,
2013-11-18 12:24:00,44.6,42.0,29.75,WNW,299,5.0,-999.0,91,-99.99,,,0.03,221,weatherlink.com 1.10,2013-11-18 12:24:00,
2013-11-18 12:36:00,-999.0,-99.9,0.00,North,-999,-999.0,-999.0,-999,-99.99,,,0.00,,weatherlink.com 1.10,2013-11-18 12:36:00,
2013-11-18 12:43:00,-999.0,-99.9,0.00,North,-999,-999.0,-999.0,-999,-99.99,,,0.00,,weatherlink.com 1.10,2013-11-18 12:43:00,
2013-11-18 12:55:00,-999.0,-99.9,29.76,North,-999,-999.0,-999.0,-999,-99.99,,,0.00,,weatherlink.com 1.10,2013-11-18 12:55:00,
2013-11-18 13:10:00,42.9,40.0,29.76,NW,309,4.0,-999.0,88,-99.99,,,0.00,155,weatherlink.com 1.10,2013-11-18 13:10:00,
2013-11-18 13:25:00,44.4,41.0,29.77,WNW,296,14.0,-999.0,86,-99.99,,,0.00,79,weatherlink.com 1.10,2013-11-18 13:25:00,
2013-11-18 13:40:00,43.4,40.0,29.76,WNW,284,3.0,-999.0,86,-99.99,,,0.00,47,weatherlink.com 1.10,2013-11-18 13:40:00,
2013-11-18 13:55:00,43.4,40.0,29.76,West,264,1.0,-999.0,87,-99.99,,,0.00,139,weatherlink.com 1.10,2013-11-18 13:55:00,
2013-11-18 14:11:00,44.1,40.0,29.75,West,278,5.0,-999.0,85,-99.99,,,0.00,116,weatherlink.com 1.10,2013-11-18 14:11:00,
2013-11-18 14:26:00,43.9,39.0,29.75,West,273,6.0,-999.0,82,-99.99,,,0.00,107,weatherlink.com 1.10,2013-11-18 14:26:00,
2013-11-18 14:41:00,44.2,39.0,29.75,WNW,296,4.0,-999.0,83,-99.99,,,0.00,135,weatherlink.com 1.10,2013-11-18 14:41:00,
2013-11-18 14:56:00,43.9,39.0,29.75,WNW,283,2.0,-999.0,83,-99.99,,,0.00,37,weatherlink.com 1.10,2013-11-18 14:56:00,
2013-11-18 15:11:00,43.0,39.0,29.75,WSW,251,1.0,-999.0,84,-99.99,,,0.00,35,weatherlink.com 1.10,2013-11-18 15:11:00,
2013-11-18 15:26:00,42.3,38.0,29.76,West,268,10.0,-999.0,86,-99.99,,,0.01,0,weatherlink.com 1.10,2013-11-18 15:26:00,
2013-11-18 15:41:00,38.6,36.0,29.75,West,280,0.0,-999.0,89,-99.99,,,0.03,7,weatherlink.com 1.10,2013-11-18 15:41:00,
2013-11-18 15:56:00,37.8,35.0,29.75,West,275,1.0,-999.0,90,-99.99,,,0.03,5,weatherlink.com 1.10,2013-11-18 15:56:00,
2013-11-18 16:26:00,37.3,36.0,29.76,SSE,149,1.0,-999.0,93,-99.99,,,0.03,0,weatherlink.com 1.10,2013-11-18 16:26:00,
2013-11-18 16:41:00,37.2,36.0,29.76,NNW,336,2.0,-999.0,94,-99.99,,,0.04,0,weatherlink.com 1.10,2013-11-18 16:41:00,
2013-11-18 16:56:00,37.2,36.0,29.76,NNW,344,0.0,-999.0,94,-99.99,,,0.04,0,weatherlink.com 1.10,2013-11-18 16:56:00,
2013-11-18 17:11:00,37.2,36.0,29.75,SSE,149,1.0,-999.0,94,-99.99,,,0.04,0,weatherlink.com 1.10,2013-11-18 17:11:00,
2013-11-18 17:26:00,36.7,35.0,29.75,South,175,2.0,-999.0,94,-99.99,,,0.04,0,weatherlink.com 1.10,2013-11-18 17:26:00,
2013-11-18 17:41:00,36.2,35.0,29.75,South,175,1.0,-999.0,94,-99.99,,,0.04,0,weatherlink.com 1.10,2013-11-18 17:41:00,
2013-11-18 17:56:00,35.8,34.0,29.75,South,175,0.0,-999.0,94,-99.99,,,0.04,0,weatherlink.com 1.10,2013-11-18 17:56:00,
2013-11-18 18:11:00,34.5,33.0,29.75,South,175,0.0,-999.0,94,-99.99,,,0.04,0,weatherlink.com 1.10,2013-11-18 18:11:00,
2013-11-18 18:26:00,34.5,33.0,29.75,WNW,288,8.0,-999.0,95,-99.99,,,0.04,0,weatherlink.com 1.10,2013-11-18 18:26:00,
2013-11-18 18:41:00,36.5,36.0,29.75,West,277,3.0,-999.0,96,-99.99,,,0.05,0,weatherlink.com 1.10,2013-11-18 18:41:00,
2013-11-18 18:56:00,36.3,35.0,29.75,West,268,4.0,-999.0,95,-99.99,,,0.05,0,weatherlink.com 1.10,2013-11-18 18:56:00,
2013-11-18 19:11:00,36.4,35.0,29.74,SSW,199,0.0,-999.0,95,-99.99,,,0.05,0,weatherlink.com 1.10,2013-11-18 19:11:00,
2013-11-18 19:26:00,36.3,35.0,29.74,SSW,199,2.0,-999.0,95,-99.99,,,0.05,0,weatherlink.com 1.10,2013-11-18 19:26:00,
2013-11-18 19:41:00,35.7,34.0,29.74,SSE,152,2.0,-999.0,94,-99.99,,,0.05,0,weatherlink.com 1.10,2013-11-18 19:41:00,
2013-11-18 19:57:00,35.4,34.0,29.74,SSE,152,2.0,-999.0,95,-99.99,,,0.05,0,weatherlink.com 1.10,2013-11-18 19:57:00,
2013-11-18 20:12:00,36.0,35.0,29.73,West,274,5.0,-999.0,95,-99.99,,,0.05,0,weatherlink.com 1.10,2013-11-18 20:12:00,
2013-11-18 20:27:00,36.5,35.0,29.73,NW,312,8.0,-999.0,95,-99.99,,,0.05,0,weatherlink.com 1.10,2013-11-18 20:27:00,
2013-11-18 20:42:00,35.9,35.0,29.73,WNW,293,2.0,-999.0,95,-99.99,,,0.05,0,weatherlink.com 1.10,2013-11-18 20:42:00,
2013-11-18 20:57:00,35.5,34.0,29.74,West,275,0.0,-999.0,95,-99.99,,,0.05,0,weatherlink.com 1.10,2013-11-18 20:57:00,
2013-11-18 21:12:00,35.4,34.0,29.73,South,173,0.0,-999.0,95,-99.99,,,0.05,0,weatherlink.com 1.10,2013-11-18 21:12:00,
2013-11-18 21:27:00,35.9,35.0,29.74,West,261,7.0,-999.0,95,-99.99,,,0.05,0,weatherlink.com 1.10,2013-11-18 21:27:00,
2013-11-18 21:42:00,36.1,35.0,29.73,WSW,247,2.0,-999.0,95,-99.99,,,0.05,0,weatherlink.com 1.10,2013-11-18 21:42:00,
2013-11-18 21:57:00,35.8,34.0,29.73,West,280,5.0,-999.0,94,-99.99,,,0.05,0,weatherlink.com 1.10,2013-11-18 21:57:00,
2013-11-18 22:27:00,36.2,35.0,29.75,West,275,10.0,-999.0,94,-99.99,,,0.05,0,weatherlink.com 1.10,2013-11-18 22:27:00,
2013-11-18 22:42:00,35.5,34.0,29.74,West,265,2.0,-999.0,94,-99.99,,,0.06,0,weatherlink.com 1.10,2013-11-18 22:42:00,
2013-11-18 22:57:00,35.0,34.0,29.75,NW,317,5.0,-999.0,94,-99.99,,,0.06,0,weatherlink.com 1.10,2013-11-18 22:57:00,
2013-11-18 23:12:00,34.9,34.0,29.75,WNW,296,0.0,-999.0,95,-99.99,,,0.06,0,weatherlink.com 1.10,2013-11-18 23:12:00,
2013-11-18 23:27:00,34.8,34.0,29.75,WNW,294,0.0,-999.0,95,-99.99,,,0.06,0,weatherlink.com 1.10,2013-11-18 23:27:00,
2013-11-18 23:42:00,34.4,33.0,29.75,WNW,294,0.0,-999.0,95,-99.99,,,0.06,0,weatherlink.com 1.10,2013-11-18 23:42:00,
2013-11-18 23:57:00,33.6,32.0,29.76,WNW,294,0.0,-999.0,94,-99.99,,,0.06,0,weatherlink.com 1.10,2013-11-18 23:57:00,